Silver City, NM

12:04 PM MST on December 08, 2019 (GMT -0700)
Grant County

Weather History for KSVC - October, 2019

Change the Weather History Date:

Thursday, October 3, 2019

  Actual Average (WUND) Record (WUND)
Temperature  
Mean Temperature 65 °F -  
Max Temperature 79 °F - - (-1)
Min Temperature 51 °F - - (-1)
Growing Degree Days 15 (Base 50)    
Moisture  
Dew Point 48 °F    
Average Humidity 54    
Maximum Humidity 96    
Minimum Humidity 33    
Precipitation  
Precipitation 0.81 in - - ()
Sea Level Pressure  
Sea Level Pressure 30.17 in    
Wind  
Wind Speed 6 mph (South)    
Max Wind Speed 16 mph    
Max Gust Speed 22 mph    
Visibility 10 miles    
Events Rain , Thunderstorm    
Averages and records for this station are not official NWS values.
T = Trace of Precipitation, MM = Missing Value Source: NWS Daily Summary

Daily Weather History Graph

Daily Weather History Graph

Search for Another Location

Airport or City:

Astronomy

Oct. 03, 2019 Rise Set
Actual Time 7:07 AM MDT 6:54 PM MDT
Civil Twilight 6:43 AM MDT 7:19 PM MDT
Nautical Twilight 6:14 AM MDT 7:47 PM MDT
Astronomical Twilight 5:46 AM MDT 8:16 PM MDT
Moon 12:26 PM MDT (10/3) 10:53 PM MDT (10/3)
Length of Visible Light 12h 36m
Length of Day
11h 46m
Waxing Crescent, 30% of the Moon is Illuminated
Oct 3
Waxing Crescent
Oct 5
First Quarter
Oct 13
Full
Oct 21
Last Quarter
Oct 27
New

Hourly Weather History & Observations

Time (MDT) Temp. Dew Point Humidity Pressure Visibility Wind Dir Wind Speed Gust Speed Precip Events Conditions
12:15 AM 55.9 °F 43.9 °F 64% 30.15 in 10.0 mi NNW 4.6 mph - N/A   Clear
12:35 AM 55.2 °F 43.0 °F 63% 30.15 in 10.0 mi NNW 6.9 mph - N/A   Scattered Clouds
12:55 AM 55.0 °F 43.0 °F 64% 30.15 in 10.0 mi WNW 3.5 mph - N/A   Mostly Cloudy
1:15 AM 53.4 °F 42.8 °F 67% 30.15 in 10.0 mi NNW 6.9 mph - N/A   Scattered Clouds
1:35 AM 54.1 °F 42.6 °F 65% 30.15 in 10.0 mi North 9.2 mph - N/A   Scattered Clouds
1:55 AM 54.3 °F 42.8 °F 65% 30.16 in 10.0 mi North 5.8 mph - N/A   Mostly Cloudy
2:15 AM 55.6 °F 43.0 °F 63% 30.15 in 10.0 mi NNW 8.1 mph - N/A   Overcast
2:35 AM 58.6 °F 42.8 °F 56% 30.15 in 10.0 mi North 6.9 mph - N/A   Overcast
2:55 AM 59.2 °F 43.2 °F 55% 30.15 in 10.0 mi North 5.8 mph - N/A   Overcast
3:15 AM 59.0 °F 43.5 °F 56% 30.15 in 10.0 mi Calm Calm - N/A   Overcast
3:35 AM 59.0 °F 43.3 °F 56% 30.15 in 10.0 mi West 3.5 mph - N/A   Overcast
3:55 AM 57.6 °F 43.7 °F 60% 30.15 in 10.0 mi WNW 3.5 mph - N/A   Overcast
4:15 AM 57.9 °F 43.3 °F 58% 30.15 in 10.0 mi NW 4.6 mph - N/A   Overcast
4:35 AM 58.5 °F 43.9 °F 58% 30.15 in 10.0 mi NW 3.5 mph - N/A   Overcast
4:55 AM 57.9 °F 43.2 °F 58% 30.15 in 10.0 mi West 5.8 mph - N/A   Overcast
5:15 AM 57.7 °F 43.3 °F 59% 30.16 in 10.0 mi NW 4.6 mph - N/A   Overcast
5:35 AM 55.6 °F 43.7 °F 64% 30.16 in 10.0 mi NW 6.9 mph - N/A   Overcast
5:55 AM 53.2 °F 43.3 °F 69% 30.17 in 10.0 mi NNW 5.8 mph - N/A   Overcast
6:15 AM 52.5 °F 43.3 °F 71% 30.17 in 10.0 mi NNW 4.6 mph - N/A   Overcast
6:35 AM 52.7 °F 43.5 °F 71% 30.17 in 10.0 mi NNW 5.8 mph - N/A   Overcast
6:55 AM 52.7 °F 43.5 °F 71% 30.18 in 10.0 mi North 3.5 mph - N/A   Overcast
7:15 AM 51.3 °F 43.3 °F 74% 30.18 in 10.0 mi NNW 5.8 mph - N/A   Overcast
7:35 AM 52.7 °F 44.1 °F 72% 30.18 in 10.0 mi NNW 4.6 mph - N/A   Overcast
7:55 AM 56.8 °F 45.9 °F 67% 30.18 in 10.0 mi NNW 4.6 mph - N/A   Mostly Cloudy
8:15 AM 61.2 °F 46.2 °F 58% 30.19 in 10.0 mi Calm Calm - N/A   Scattered Clouds
8:35 AM 64.8 °F 45.3 °F 49% 30.20 in 10.0 mi Calm Calm - N/A   Overcast
8:55 AM 67.3 °F 45.1 °F 45% 30.21 in 10.0 mi Calm Calm - N/A   Mostly Cloudy
9:15 AM 66.6 °F 45.3 °F 46% 30.21 in 10.0 mi SSW 3.5 mph - N/A   Overcast
9:35 AM 66.2 °F 45.0 °F 46% 30.21 in 10.0 mi Calm Calm - N/A   Overcast
9:55 AM 68.7 °F 45.5 °F 43% 30.21 in 10.0 mi ESE 3.5 mph - N/A   Mostly Cloudy
10:15 AM 71.4 °F 46.2 °F 41% 30.22 in 10.0 mi Calm Calm - N/A   Scattered Clouds
10:35 AM 72.5 °F 46.4 °F 39% 30.22 in 10.0 mi SE 5.8 mph - N/A   Scattered Clouds
10:55 AM 73.2 °F 46.4 °F 38% 30.22 in 10.0 mi SSE 4.6 mph - N/A   Clear
11:15 AM 74.8 °F 46.8 °F 37% 30.21 in 10.0 mi SE 10.4 mph - N/A   Clear
11:35 AM 75.4 °F 46.9 °F 36% 30.21 in 10.0 mi SSE 6.9 mph - N/A   Clear
11:55 AM 75.6 °F 46.8 °F 36% 30.20 in 10.0 mi SE 9.2 mph 17.3 mph N/A   Clear
12:15 PM 77.0 °F 47.7 °F 35% 30.20 in 10.0 mi SE 10.4 mph - N/A   Clear
12:35 PM 76.1 °F 46.8 °F 35% 30.19 in 10.0 mi ESE 9.2 mph - N/A   Mostly Cloudy
12:55 PM 77.9 °F 47.8 °F 35% 30.18 in 10.0 mi South 8.1 mph - N/A   Mostly Cloudy
1:15 PM 77.0 °F 47.3 °F 35% 30.17 in 10.0 mi SSE 10.4 mph - N/A   Mostly Cloudy
1:35 PM 78.8 °F 47.7 °F 33% 30.16 in 10.0 mi SSE 6.9 mph - N/A   Mostly Cloudy
1:55 PM 77.9 °F 49.1 °F 36% 30.16 in 10.0 mi SSE 5.8 mph 16.1 mph N/A   Scattered Clouds
2:15 PM 78.1 °F 49.6 °F 37% 30.15 in 10.0 mi South 5.8 mph 18.4 mph N/A   Scattered Clouds
2:35 PM 78.3 °F 49.8 °F 37% 30.15 in 10.0 mi South 9.2 mph 16.1 mph N/A   Scattered Clouds
2:55 PM 78.8 °F 49.8 °F 36% 30.14 in 10.0 mi SW 5.8 mph 9.2 mph N/A   Scattered Clouds
3:15 PM 78.3 °F 49.8 °F 37% 30.13 in 10.0 mi SSE 3.5 mph - N/A   Scattered Clouds
3:35 PM 79.7 °F 50.2 °F 36% 30.13 in 10.0 mi SSW 8.1 mph - N/A   Scattered Clouds
3:55 PM 78.6 °F 49.8 °F 36% 30.13 in 10.0 mi South 12.7 mph 18.4 mph N/A   Mostly Cloudy
4:15 PM 78.3 °F 49.5 °F 36% 30.13 in 10.0 mi South 6.9 mph - N/A   Mostly Cloudy
4:35 PM 77.9 °F 49.5 °F 37% 30.13 in 10.0 mi SSE 8.1 mph - N/A   Mostly Cloudy
4:55 PM 77.4 °F 50.0 °F 38% 30.13 in 10.0 mi SE 11.5 mph - N/A   Overcast
5:15 PM 78.1 °F 50.9 °F 39% 30.12 in 10.0 mi SSE 8.1 mph - N/A   Overcast
5:35 PM 77.5 °F 50.9 °F 39% 30.12 in 10.0 mi South 10.4 mph - N/A   Scattered Clouds
5:55 PM 77.0 °F 51.3 °F 40% 30.12 in 10.0 mi SSE 8.1 mph - N/A   Mostly Cloudy
6:15 PM 75.9 °F 51.6 °F 43% 30.13 in 10.0 mi South 8.1 mph - N/A   Scattered Clouds
6:35 PM 74.3 °F 51.1 °F 44% 30.13 in 10.0 mi South 6.9 mph - N/A   Scattered Clouds
6:55 PM 73.4 °F 51.3 °F 46% 30.13 in 10.0 mi South 5.8 mph - N/A   Scattered Clouds
7:15 PM 71.8 °F 51.4 °F 49% 30.13 in 10.0 mi South 4.6 mph - N/A   Scattered Clouds
7:35 PM 71.2 °F 51.8 °F 50% 30.13 in 10.0 mi SSE 5.8 mph - N/A   Mostly Cloudy
7:55 PM 70.7 °F 52.2 °F 52% 30.14 in 10.0 mi SE 6.9 mph - N/A   Overcast
8:15 PM 71.4 °F 52.2 °F 51% 30.15 in 10.0 mi SSE 5.8 mph - N/A   Overcast
8:35 PM 71.6 °F 52.3 °F 51% 30.16 in 10.0 mi SSE 5.8 mph - N/A   Mostly Cloudy
8:55 PM 71.6 °F 52.9 °F 52% 30.16 in 10.0 mi SE 6.9 mph - N/A Thunderstorm Overcast
9:15 PM 70.2 °F 57.0 °F 63% 30.16 in 10.0 mi SE 6.9 mph - N/A Rain , Thunderstorm Light Thunderstorms and Rain
9:35 PM 66.6 °F 58.8 °F 76% 30.17 in 10.0 mi East 16.1 mph 21.9 mph N/A Rain , Thunderstorm Light Thunderstorms and Rain
9:55 PM 64.6 °F 59.2 °F 83% 30.17 in 10.0 mi East 16.1 mph - 0.01 in Rain , Thunderstorm Light Thunderstorms and Rain
10:15 PM 64.2 °F 59.7 °F 85% 30.20 in 10.0 mi East 8.1 mph 16.1 mph N/A Rain , Thunderstorm Light Thunderstorms and Rain
10:35 PM 64.4 °F 60.3 °F 86% 30.21 in 10.0 mi WNW 4.6 mph - 0.02 in Rain , Thunderstorm Thunderstorms and Rain
10:55 PM 62.6 °F 60.8 °F 94% 30.21 in 4.0 mi WNW 6.9 mph - 0.17 in Rain , Thunderstorm Thunderstorms and Rain
11:15 PM 62.4 °F 60.8 °F 94% 30.22 in 1.5 mi SSW 6.9 mph - 0.32 in Rain , Thunderstorm Heavy Thunderstorms and Rain
11:35 PM 61.9 °F 60.8 °F 96% 30.22 in 4.0 mi WSW 5.8 mph - 0.46 in Rain , Thunderstorm Heavy Thunderstorms and Rain
11:55 PM 61.7 °F 60.1 °F 94% 30.22 in 7.0 mi South 6.9 mph - 0.63 in Rain , Thunderstorm Rain